• In Hungary
  • List of Countries
  • For 7 days
  • Water Temperature
  • Satellite Maps
  • Weather Map
  • News
  • Weather Widgets
  • user-avatar
    Login

    Hourly Weather Poddabie

    Today, 13 December, Wednesday

    Time Temperature Precipitation Wind Pressure Humidity
    00:00 0°C° 0 mm 9 mps 751 mmHg 76%
    01:00 -1°C° 0 mm 8 mps 752 mmHg 76%
    02:00 -1°C° 0.1 mm 9 mps 753 mmHg 78%
    03:00 -1°C° 0.1 mm 9 mps 753 mmHg 81%
    04:00 -1°C° 0.1 mm 9 mps 753 mmHg 83%
    05:00 -1°C° 0 mm 9 mps 754 mmHg 83%
    06:00 -1°C° 0 mm 9 mps 754 mmHg 83%
    07:00 -1°C° 0 mm 8 mps 754 mmHg 83%
    08:00 -1°C° 0 mm 8 mps 754 mmHg 82%
    09:00 -1°C° 0 mm 8 mps 754 mmHg 81%
    10:00 -1°C° 0 mm 9 mps 754 mmHg 80%
    11:00 -1°C° 0 mm 9 mps 754 mmHg 78%
    12:00 -1°C° 0 mm 9 mps 754 mmHg 76%
    13:00 -1°C° 0 mm 9 mps 753 mmHg 75%
    14:00 -1°C° 0 mm 9 mps 752 mmHg 76%
    15:00 -1°C° 0 mm 9 mps 751 mmHg 77%
    16:00 -3°C° 0 mm 10 mps 751 mmHg 78%
    17:00 -3°C° 0 mm 10 mps 750 mmHg 77%
    18:00 -3°C° 0 mm 10 mps 749 mmHg 76%
    19:00 -3°C° 0 mm 11 mps 749 mmHg 75%
    20:00 -3°C° 0 mm 11 mps 748 mmHg 73%
    21:00 -3°C° 0 mm 11 mps 746 mmHg 72%
    22:00 -3°C° 0 mm 11 mps 745 mmHg 71%
    23:00 -3°C° 0.1 mm 11 mps 744 mmHg 70%

    Tomorrow, 14 December, Thursday

    Time Temperature Precipitation Wind Pressure Humidity
    00:00 -3°C° 0.1 mm 11 mps 743 mmHg 70%
    01:00 -2°C° 0.1 mm 11 mps 742 mmHg 69%
    02:00 -2°C° 0.1 mm 11 mps 741 mmHg 71%
    03:00 -2°C° 0.1 mm 10 mps 740 mmHg 73%
    04:00 -2°C° 0.1 mm 10 mps 739 mmHg 75%
    05:00 -2°C° 0.1 mm 10 mps 738 mmHg 74%
    06:00 -2°C° 0.1 mm 11 mps 737 mmHg 74%
    07:00 -2°C° 0.1 mm 11 mps 736 mmHg 73%
    08:00 0°C° 0.8 mm 10 mps 736 mmHg 76%
    09:00 0°C° 0.8 mm 10 mps 735 mmHg 80%
    10:00 0°C° 0.8 mm 10 mps 735 mmHg 83%
    11:00 +1°C° 0.3 mm 10 mps 735 mmHg 83%
    12:00 +1°C° 0.3 mm 10 mps 736 mmHg 82%
    13:00 +1°C° 0.3 mm 10 mps 736 mmHg 81%
    14:00 +1°C° 0 mm 10 mps 737 mmHg 82%
    15:00 0°C° 0 mm 9 mps 737 mmHg 83%
    16:00 0°C° 0 mm 8 mps 738 mmHg 84%
    17:00 0°C° 0.1 mm 8 mps 738 mmHg 84%
    18:00 0°C° 0.1 mm 8 mps 738 mmHg 84%
    19:00 0°C° 0.1 mm 8 mps 739 mmHg 85%
    20:00 0°C° 0.1 mm 8 mps 739 mmHg 84%
    21:00 -1°C° 0.1 mm 8 mps 739 mmHg 84%
    22:00 -1°C° 0.1 mm 8 mps 739 mmHg 83%
    23:00 -1°C° 0 mm 8 mps 739 mmHg 83%

    Day after tomorrow, 15 December, Friday

    Time Temperature Precipitation Wind Pressure Humidity
    00:00 -1°C° 0 mm 8 mps 739 mmHg 83%
    01:00 -1°C° 0 mm 8 mps 739 mmHg 83%
    02:00 -2°C° 0 mm 8 mps 739 mmHg 85%
    03:00 -2°C° 0 mm 8 mps 739 mmHg 87%
    04:00 -2°C° 0 mm 8 mps 739 mmHg 89%
    05:00 -2°C° 0 mm 7 mps 739 mmHg 90%
    06:00 -3°C° 0 mm 7 mps 739 mmHg 91%
    07:00 -3°C° 0 mm 7 mps 739 mmHg 92%
    08:00 -2°C° 0 mm 7 mps 739 mmHg 90%
    09:00 -2°C° 0 mm 7 mps 740 mmHg 89%
    10:00 -2°C° 0 mm 7 mps 740 mmHg 87%
    11:00 -1°C° 0 mm 7 mps 740 mmHg 84%
    12:00 -1°C° 0 mm 8 mps 739 mmHg 81%
    13:00 0°C° 0 mm 8 mps 739 mmHg 78%
    14:00 -1°C° 0.2 mm 9 mps 739 mmHg 79%
    15:00 -1°C° 0.2 mm 9 mps 739 mmHg 81%
    16:00 -2°C° 0.2 mm 10 mps 739 mmHg 83%
    17:00 -2°C° 0.6 mm 10 mps 740 mmHg 82%
    18:00 -2°C° 0.6 mm 10 mps 740 mmHg 81%
    19:00 -1°C° 0.6 mm 11 mps 740 mmHg 81%
    20:00 -1°C° 0.7 mm 11 mps 740 mmHg 82%
    21:00 0°C° 0.7 mm 10 mps 740 mmHg 84%
    22:00 0°C° 0.7 mm 10 mps 740 mmHg 85%
    23:00 0°C° 0.2 mm 10 mps 740 mmHg 86%

    16 December, Saturday

    Time Temperature Precipitation Wind Pressure Humidity
    00:00 0°C° 0.2 mm 10 mps 741 mmHg 87%
    01:00 0°C° 0.2 mm 9 mps 741 mmHg 88%
    02:00 0°C° 0.2 mm 9 mps 741 mmHg 88%
    03:00 0°C° 0.2 mm 9 mps 742 mmHg 88%
    04:00 0°C° 0.2 mm 9 mps 742 mmHg 87%
    05:00 0°C° 0.1 mm 8 mps 742 mmHg 86%
    06:00 -1°C° 0.1 mm 8 mps 743 mmHg 84%
    07:00 -1°C° 0.1 mm 8 mps 743 mmHg 83%
    08:00 -1°C° 0.1 mm 8 mps 744 mmHg 83%
    09:00 -1°C° 0.1 mm 8 mps 744 mmHg 84%
    10:00 -1°C° 0.1 mm 9 mps 745 mmHg 84%
    11:00 -1°C° 0.1 mm 8 mps 745 mmHg 83%
    12:00 -1°C° 0.1 mm 8 mps 745 mmHg 83%
    13:00 -1°C° 0.1 mm 8 mps 746 mmHg 82%
    14:00 -1°C° 0.2 mm 8 mps 746 mmHg 82%
    15:00 -1°C° 0.2 mm 8 mps 746 mmHg 82%
    16:00 -1°C° 0.2 mm 7 mps 747 mmHg 83%
    17:00 -1°C° 0.3 mm 7 mps 747 mmHg 84%
    18:00 -1°C° 0.3 mm 6 mps 747 mmHg 85%
    19:00 -1°C° 0.3 mm 5 mps 748 mmHg 87%
    20:00 -1°C° 0.2 mm 5 mps 749 mmHg 88%
    21:00 0°C° 0.2 mm 5 mps 749 mmHg 89%
    22:00 0°C° 0.2 mm 5 mps 750 mmHg 90%
    23:00 0°C° 0.1 mm 5 mps 751 mmHg 90%

    17 December, Sunday

    Time Temperature Precipitation Wind Pressure Humidity
    00:00 -1°C° 0.1 mm 6 mps 751 mmHg 90%
    01:00 -1°C° 0.1 mm 6 mps 752 mmHg 90%
    02:00 -1°C° 0.1 mm 6 mps 753 mmHg 89%
    03:00 -1°C° 0.1 mm 6 mps 753 mmHg 88%
    04:00 -1°C° 0.1 mm 6 mps 754 mmHg 87%
    05:00 0°C° 0.1 mm 5 mps 755 mmHg 87%
    06:00 -1°C° 0.1 mm 5 mps 755 mmHg 87%
    07:00 -1°C° 0.1 mm 4 mps 756 mmHg 87%
    08:00 -1°C° 0 mm 4 mps 757 mmHg 86%
    09:00 -1°C° 0 mm 4 mps 758 mmHg 85%
    10:00 -1°C° 0 mm 4 mps 758 mmHg 84%
    11:00 0°C° 0 mm 4 mps 759 mmHg 82%
    12:00 0°C° 0 mm 4 mps 759 mmHg 81%
    13:00 0°C° 0 mm 4 mps 759 mmHg 80%
    14:00 0°C° 0 mm 4 mps 760 mmHg 81%
    15:00 -1°C° 0 mm 4 mps 760 mmHg 83%
    16:00 -1°C° 0 mm 4 mps 761 mmHg 84%
    17:00 -1°C° 0 mm 4 mps 761 mmHg 84%
    18:00 -2°C° 0 mm 4 mps 762 mmHg 84%
    19:00 -2°C° 0 mm 4 mps 762 mmHg 83%
    20:00 -1°C° 0 mm 3 mps 762 mmHg 84%
    21:00 -1°C° 0 mm 3 mps 762 mmHg 84%
    22:00 -2°C° 0 mm 3 mps 763 mmHg 85%
    23:00 -2°C° 0 mm 3 mps 763 mmHg 85%

    18 December, Monday

    Time Temperature Precipitation Wind Pressure Humidity
    00:00 -3°C° 0 mm 4 mps 763 mmHg 85%
    01:00 -3°C° 0 mm 4 mps 763 mmHg 85%
    02:00 -3°C° 0 mm 4 mps 763 mmHg 86%
    03:00 -3°C° 0 mm 4 mps 763 mmHg 87%
    04:00 -3°C° 0 mm 4 mps 763 mmHg 88%
    05:00 -3°C° 0 mm 4 mps 762 mmHg 89%
    06:00 -3°C° 0 mm 4 mps 762 mmHg 91%
    07:00 -3°C° 0 mm 4 mps 762 mmHg 92%
    08:00 -3°C° 0 mm 4 mps 762 mmHg 90%
    09:00 -4°C° 0 mm 5 mps 762 mmHg 88%
    10:00 -2°C° 0 mm 5 mps 762 mmHg 85%
    11:00 -2°C° 0 mm 4 mps 762 mmHg 85%
    12:00 -2°C° 0 mm 4 mps 762 mmHg 85%
    13:00 -1°C° 0 mm 4 mps 762 mmHg 85%
    14:00 -2°C° 0 mm 4 mps 762 mmHg 86%
    15:00 -2°C° 0 mm 4 mps 762 mmHg 87%
    16:00 -2°C° 0 mm 4 mps 762 mmHg 89%
    17:00 -1°C° 0 mm 3 mps 763 mmHg 89%
    18:00 -1°C° 0 mm 3 mps 763 mmHg 89%
    19:00 -2°C° 0 mm 3 mps 764 mmHg 89%
    20:00 -2°C° 0 mm 3 mps 764 mmHg 89%
    21:00 -2°C° 0 mm 2 mps 764 mmHg 90%
    22:00 -2°C° 0 mm 2 mps 765 mmHg 90%
    23:00 -2°C° 0 mm 2 mps 765 mmHg 90%
    Show more